Waterbury, CT

2:59 PM EST on February 13, 2016 (GMT -0500)
Waterbury-Oxford

Weather History for KOXC - November, 2011

Change the Weather History Date:

Tuesday, November 29, 2011

  Actual Average Record
Temperature  
Mean Temperature 56 °F -  
Max Temperature 62 °F 43 °F 62 °F (2011)
Min Temperature 51 °F 28 °F 14 °F (2014)
Degree Days  
Heating Degree Days 8    
Growing Degree Days 6 (Base 50)    
Moisture  
Dew Point 53 °F    
Average Humidity 90    
Maximum Humidity 94    
Minimum Humidity 77    
Precipitation  
Precipitation 0.54 in - - ()
Sea Level Pressure  
Sea Level Pressure 29.97 in    
Wind  
Wind Speed 6 mph (SE)    
Max Wind Speed 18 mph    
Max Gust Speed 29 mph    
Visibility 6 miles    
Events Rain    
Averages and records for this station are not official NWS values.
T = Trace of Precipitation, MM = Missing Value Source: NWS Daily Summary

Daily Weather History Graph

Daily Weather History Graph

Search for Another Location

Airport or City:

Trip Planner

Search our weather history database for the weather conditions in past years. The results will help you decide how hot, cold, wet, or windy it might be!

Date:

Astronomy

Nov. 29, 2011 Rise Set
Actual Time 6:57 AM EST 4:24 PM EST
Civil Twilight 6:26 AM EST 4:55 PM EST
Nautical Twilight 5:52 AM EST 5:29 PM EST
Astronomical Twilight 5:18 AM EST 6:02 PM EST
Moon 10:40 AM EST (11/29) 9:16 PM EST (11/29)
Length of Visible Light 10h 28m
Length of Day
9h 27m
Waxing Crescent, 24% of the Moon is Illuminated
Nov 29
Waxing Crescent
Dec 2
First Quarter
Dec 10
Full
Dec 17
Last Quarter
Dec 24
New

Hourly Weather History & Observations

Time (EST) Temp. Dew Point Humidity Pressure Visibility Wind Dir Wind Speed Gust Speed Precip Events Conditions
12:15 AM 51.8 °F 48.2 °F 88% 30.13 in 7.0 mi SE 3.5 mph - N/A   Clear
12:35 AM 51.8 °F 48.2 °F 88% 30.13 in 5.0 mi SE 3.5 mph - N/A   Clear
12:55 AM 51.8 °F 48.2 °F 88% 30.13 in 2.0 mi SE 3.5 mph - N/A   Mostly Cloudy
1:15 AM 51.8 °F 48.2 °F 88% 30.13 in 5.0 mi ESE 3.5 mph - N/A   Overcast
1:35 AM 51.8 °F 48.2 °F 88% 30.13 in 4.0 mi SE 3.5 mph - N/A   Scattered Clouds
1:55 AM 51.8 °F 48.2 °F 88% 30.12 in 5.0 mi SE 4.6 mph - N/A   Scattered Clouds
2:15 AM 51.8 °F 48.2 °F 88% 30.12 in 6.0 mi ESE 4.6 mph - N/A   Mostly Cloudy
2:35 AM 51.8 °F 50.0 °F 94% 30.12 in 5.0 mi ESE 3.5 mph - N/A   Mostly Cloudy
2:55 AM 51.8 °F 48.2 °F 88% 30.11 in 5.0 mi ESE 5.8 mph - N/A   Mostly Cloudy
3:15 AM 51.8 °F 50.0 °F 94% 30.10 in 4.0 mi SE 4.6 mph - N/A   Overcast
3:35 AM 51.8 °F 50.0 °F 94% 30.10 in 4.0 mi ESE 3.5 mph - N/A   Overcast
3:55 AM 51.8 °F 50.0 °F 94% 30.09 in 3.0 mi East 3.5 mph - N/A   Overcast
4:15 AM 51.8 °F 48.2 °F 88% 30.09 in 3.0 mi ESE 4.6 mph - N/A   Overcast
4:35 AM 53.6 °F 51.8 °F 94% 30.08 in 5.0 mi SE 4.6 mph - N/A   Overcast
4:55 AM 53.6 °F 51.8 °F 94% 30.09 in 7.0 mi ESE 3.5 mph - N/A   Overcast
5:15 AM 53.6 °F 51.8 °F 94% 30.09 in 5.0 mi SE 4.6 mph - N/A   Overcast
5:35 AM 53.6 °F 51.8 °F 94% 30.08 in 9.0 mi SE 5.8 mph - N/A   Overcast
5:45 AM 53.6 °F 51.8 °F 94% 30.08 in 6.0 mi SE 6.9 mph - N/A   Overcast
5:55 AM 53.6 °F 51.8 °F 94% 30.08 in 10.0 mi SE 5.8 mph - N/A   Overcast
8:04 AM 55.4 °F 53.6 °F 94% 30.07 in 6.0 mi SSE 6.9 mph - N/A   Overcast
8:45 AM 57.2 °F 55.4 °F 94% 30.06 in 4.0 mi SE 8.1 mph - N/A   Overcast
10:45 AM 60.8 °F 55.4 °F 82% 30.05 in 3.0 mi South 12.7 mph 18.4 mph N/A   Overcast
11:45 AM 59.0 °F 55.4 °F 88% 30.01 in 8.0 mi South 6.9 mph - N/A   Overcast
12:45 PM 60.8 °F 53.6 °F 77% 29.96 in 10.0 mi SE 8.1 mph - N/A   Overcast
1:27 PM 60.8 °F 55.4 °F 82% 29.94 in 10.0 mi SE 9.2 mph 17.3 mph N/A   Overcast
1:55 PM 60.8 °F 55.4 °F 82% 29.93 in 10.0 mi SSE 9.2 mph 17.3 mph N/A   Overcast
2:55 PM 62.6 °F 55.4 °F 77% 29.89 in 10.0 mi SSE 9.2 mph 20.7 mph N/A   Mostly Cloudy
4:05 PM 62.6 °F 55.4 °F 77% 29.88 in 3.0 mi SE 9.2 mph 19.6 mph N/A Rain Light Rain
4:45 PM 59.0 °F 55.4 °F 88% 29.87 in 4.0 mi SSE 9.2 mph - N/A Rain Light Rain
5:15 PM 57.2 °F 55.4 °F 94% 29.86 in 1.0 mi SSE 9.2 mph 17.3 mph N/A Rain Light Rain
5:45 PM 59.0 °F 57.2 °F 94% 29.85 in 2.0 mi SSE 9.2 mph 20.7 mph N/A Rain Light Rain
7:45 PM 59.0 °F 57.2 °F 94% 29.79 in 2.0 mi SSE 17.3 mph 28.8 mph N/A Rain Light Rain
9:15 PM 60.8 °F 57.2 °F 88% 29.72 in 9.0 mi SSE 18.4 mph 28.8 mph 0.03 in   Overcast
9:35 PM 60.8 °F 57.2 °F 88% 29.70 in 5.0 mi SSE 15.0 mph 19.6 mph 0.12 in   Overcast
9:55 PM 60.8 °F 57.2 °F 88% 29.67 in 5.0 mi SE 12.7 mph 23.0 mph 0.30 in   Overcast
10:15 PM 59.0 °F 57.2 °F 94% 29.68 in 7.0 mi South 11.5 mph 19.6 mph 0.04 in   Overcast
10:55 PM 55.4 °F 53.6 °F 94% 29.69 in 10.0 mi SSW 11.5 mph 17.3 mph 0.18 in   Overcast
11:15 PM 55.4 °F 53.6 °F 94% 29.69 in 10.0 mi SW 10.4 mph 16.1 mph N/A   Mostly Cloudy
11:35 PM 55.4 °F 51.8 °F 88% 29.68 in 10.0 mi SW 5.8 mph - N/A   Overcast
11:55 PM 53.6 °F 51.8 °F 94% 29.69 in 10.0 mi SW 10.4 mph 21.9 mph 0.06 in   Overcast